Location: Chmeli�t?
(49.8978°N, 15.0526°E)
Time: 22:49:00
(UTC+00:00)

Cosmos 2074 Rocket - Pass Details

Date: 01 October 2020
Orbit: 967 x 986 km, 82.9° (Epoch: 24 October)

Event Time Altitude Azimuth Distance (km) Brightness Sun altitude
Rises 20:52:46 0° 355° (N) 3,697 7.7 -37.6°
Reaches altitude 10° 20:55:37 10° 5° (N) 2,742 6.8 -37.9°
Enters shadow 20:58:10 22° 23° (NNE) 2,010 5.8 -38.1°
